CW3319 Weather Reports


Display with metric or nautical units.
time (UTC)temp
F
wind
direction
speed
MPH
gust
MPH
rain 1hr
in
rain 24hr
in
rain mn
in
humidity
%
barometer
mb
20260509183901 60 313 3.0 6.0 0.00 0.00 0.00 40 1006.4
20260509182902 60 345 3.0 5.0 0.00 0.00 0.00 39 1006.3
20260509181902 60 313 3.0 6.0 0.00 0.00 0.00 41 1006.3
20260509180902 60 314 2.0 4.0 0.00 0.00 0.00 39 1006.2
20260509175903 59 344 3.0 4.0 0.00 0.00 0.00 42 1006.2
20260509174901 58 305 1.0 5.0 0.00 0.00 0.00 45 1006.1
20260509173903 58 344 4.0 7.0 0.00 0.00 0.00 47 1006.1
20260509172901 58 279 3.0 5.0 0.00 0.00 0.00 49 1005.9
20260509171932 58 342 5.0 8.0 0.00 0.00 0.00 46 1006.0
20260509170902 56 331 2.0 3.0 0.00 0.00 0.00 50 1005.8
20260509165902 57 341 2.0 3.0 0.00 0.00 0.00 47 1005.7
20260509164933 58 299 2.0 2.0 0.00 0.00 0.00 44 1005.6
20260509163901 58 308 2.0 4.0 0.00 0.00 0.00 46 1005.5
20260509163002 59 341 4.0 8.0 0.00 0.00 0.00 44 1005.3
20260509161902 58 269 2.0 4.0 0.00 0.00 0.00 45 1005.1
20260509160902 57 309 3.0 4.0 0.00 0.00 0.00 45 1005.2
20260509155933 57 340 6.0 8.0 0.00 0.00 0.00 48 1005.0
20260509154901 57 289 3.0 6.0 0.00 0.00 0.00 51 1004.9
20260509153903 56 279 3.0 8.0 0.00 0.00 0.00 53 1004.8
20260509152902 56 311 2.0 3.0 0.00 0.00 0.00 57 1004.6
20260509151901 55 283 1.0 2.0 0.00 0.00 0.00 57 1004.5
20260509150902 54 317 2.0 4.0 0.00 0.00 0.00 59 1004.6
20260509145902 54 287 3.0 4.0 0.00 0.00 0.00 59 1004.3
20260509144901 54 305 2.0 4.0 0.00 0.00 0.00 62 1004.3
20260509143932 54 315 2.0 5.0 0.00 0.00 0.00 64 1004.3
20260509142903 53 331 6.0 11.0 0.00 0.00 0.00 65 1004.1
20260509141902 52 5 4.0 6.0 0.00 0.00 0.00 66 1003.9
20260509140902 52 283 4.0 11.0 0.00 0.00 0.00 70 1003.7
20260509135902 51 296 2.0 3.0 0.00 0.00 0.00 73 1003.6
20260509134902 51 333 3.0 6.0 0.00 0.00 0.00 76 1003.5
20260509133902 51 330 1.0 3.0 0.00 0.00 0.00 76 1003.4
20260509132902 51 313 2.0 4.0 0.00 0.00 0.00 75 1003.2
20260509131903 51 319 2.0 9.0 0.00 0.00 0.00 76 1003.0
20260509130902 51 310 3.0 4.0 0.00 0.00 0.00 76 1002.7
20260509125932 51 345 2.0 5.0 0.00 0.00 0.00 78 1002.6
20260509124902 51 330 2.0 4.0 0.00 0.00 0.00 78 1002.5
20260509123902 51 310 2.0 3.0 0.00 0.00 0.00 78 1002.4
20260509122902 51 328 4.0 11.0 0.00 0.00 0.00 79 1002.3
20260509121902 52 290 3.0 4.0 0.00 0.00 0.00 79 1002.1
20260509120902 52 285 1.0 2.0 0.00 0.00 0.00 79 1001.9
20260509115902 52 279 2.0 3.0 0.00 0.00 0.00 77 1001.8
20260509114902 52 302 1.0 2.0 0.00 0.00 0.00 75 1001.5
20260509113902 51 302 0.0 1.0 0.00 0.00 0.00 72 1001.4
20260509112932 51 300 0.0 0.0 0.00 0.00 0.00 71 1001.2
20260509111902 51 307 0.0 0.0 0.00 0.00 0.00 71 1001.0
20260509110902 51 286 0.0 0.0 0.00 0.00 0.00 70 1000.9
20260509105902 52 259 0.0 0.0 0.00 0.00 0.00 70 1000.8
20260509104902 52 252 0.0 0.0 0.00 0.00 0.00 68 1000.7
20260509103902 53 207 0.0 0.0 0.00 0.00 0.00 65 1000.7
20260509102902 53 311 0.0 0.0 0.00 0.00 0.00 61 1000.8
20260509101932 53 196 0.0 0.0 0.00 0.00 0.00 60 1000.4
20260509100902 53 274 0.0 0.0 0.00 0.00 0.00 58 1000.4
20260509095902 53 263 0.0 0.0 0.00 0.00 0.00 57 1000.6
20260509094902 53 339 0.0 0.0 0.00 0.00 0.00 55 1001.0
20260509093902 54 345 1.0 3.0 0.00 0.00 0.00 55 1001.0
20260509092902 54 307 1.0 1.0 0.00 0.00 0.00 53 1000.8
20260509091902 54 314 0.0 0.0 0.00 0.00 0.00 53 1000.7
20260509090902 54 334 1.0 2.0 0.00 0.00 0.00 52 1000.7
20260509085902 54 295 0.0 1.0 0.00 0.00 0.00 51 1000.8
20260509084902 54 304 1.0 2.0 0.00 0.00 0.00 51 1000.5
20260509083902 53 308 0.0 0.0 0.00 0.00 0.00 52 1000.3
20260509082933 52 301 0.0 1.0 0.00 0.00 0.00 55 1000.4
20260509081932 52 165 0.0 0.0 0.00 0.00 0.00 54 999.9
20260509080902 52 107 0.0 0.0 0.00 0.00 0.00 57 999.7
20260509075902 52 107 0.0 0.0 0.00 0.00 0.00 54 999.5
20260509074901 52 107 0.0 0.0 0.00 0.00 0.00 54 999.5
20260509073931 51 107 0.0 0.0 0.00 0.00 0.00 54 999.7
20260509072903 51 107 0.0 0.0 0.00 0.00 0.00 51 999.8
20260509071901 51 107 0.0 0.0 0.00 0.00 0.00 53 1000.0
20260509070902 51 107 0.0 0.0 0.00 0.00 0.00 52 1000.0
20260509065902 51 107 0.0 0.0 0.00 0.00 0.00 50 1000.0
20260509064902 52 94 0.0 0.0 0.00 0.00 0.00 46 1000.1
20260509063902 52 94 0.0 0.0 0.00 0.00 0.00 47 1000.2
20260509062902 52 94 0.0 0.0 0.00 0.00 0.00 51 1000.3
20260509061902 53 94 0.0 0.0 0.00 0.00 0.00 46 1000.2
20260509060902 53 94 0.0 0.0 0.00 0.00 0.00 44 1000.3
20260509055932 53 53 0.0 0.0 0.00 0.00 0.00 44 1000.7
20260509054902 54 53 0.0 0.0 0.00 0.00 0.00 43 1000.6
20260509053902 55 53 0.0 0.0 0.00 0.00 0.00 41 1000.7
20260509052902 55 52 0.0 0.0 0.00 0.00 0.00 40 1000.8
20260509051902 56 52 0.0 0.0 0.00 0.00 0.00 40 1000.9
20260509050932 57 52 0.0 0.0 0.00 0.00 0.00 41 1000.9
20260509045902 57 277 0.0 0.0 0.00 0.00 0.00 39 1001.0
20260509044902 58 5 0.0 0.0 0.00 0.00 0.00 39 1001.1
20260509043902 58 292 0.0 1.0 0.00 0.00 0.00 38 1001.2
20260509042903 59 296 0.0 0.0 0.00 0.00 0.00 37 1001.2
20260509042002 59 297 0.0 1.0 0.00 0.00 0.00 37 1001.2
20260509040903 60 292 1.0 3.0 0.00 0.00 0.00 37 1001.1
20260509035903 60 286 1.0 2.0 0.00 0.00 0.00 36 1001.1
20260509034902 60 298 0.0 0.0 0.00 0.00 0.00 36 1001.1
20260509033903 61 293 1.0 2.0 0.00 0.00 0.00 35 1001.1
20260509032932 61 297 1.0 4.0 0.00 0.00 0.00 36 1001.0
20260509031903 62 312 1.0 2.0 0.00 0.00 0.00 38 1000.9
20260509030902 62 310 2.0 4.0 0.00 0.00 0.00 37 1000.7
20260509025902 63 299 1.0 2.0 0.00 0.00 0.00 36 1000.7
20260509024902 63 306 2.0 4.0 0.00 0.00 0.00 36 1000.4
20260509023902 64 298 2.0 3.0 0.00 0.00 0.00 35 1000.3
20260509022932 64 269 1.0 3.0 0.00 0.00 0.00 34 1000.1
20260509021902 64 298 1.0 2.0 0.00 0.00 0.00 33 1000.0
20260509020932 65 289 1.0 2.0 0.00 0.00 0.00 32 999.8
20260509015902 65 289 2.0 2.0 0.00 0.00 0.00 31 999.7
20260509014902 65 283 1.0 2.0 0.00 0.00 0.00 31 999.5
20260509013902 65 285 1.0 2.0 0.00 0.00 0.00 31 999.5
20260509012902 66 288 0.0 0.0 0.00 0.00 0.00 30 999.4
20260509011902 67 277 1.0 3.0 0.00 0.00 0.00 31 999.3
20260509010902 67 267 1.0 2.0 0.00 0.00 0.00 30 999.3
20260509005902 68 275 1.0 2.0 0.00 0.00 0.00 30 999.3
20260509004902 68 276 2.0 2.0 0.00 0.00 0.00 29 999.2
20260509003932 68 291 2.0 4.0 0.00 0.00 0.00 30 999.2
20260509002902 69 288 3.0 6.0 0.00 0.00 0.00 30 999.1
20260509001902 69 302 2.0 3.0 0.00 0.00 0.00 31 999.2
20260509000902 69 281 1.0 2.0 0.00 0.00 0.00 30 999.2
20260508235902 69 271 2.0 3.0 0.00 0.00 0.00 30 999.2
20260508234902 69 277 1.0 3.0 0.00 0.00 0.00 31 999.3
20260508233932 69 295 1.0 2.0 0.00 0.00 0.00 31 999.4
20260508232902 69 285 2.0 3.0 0.00 0.00 0.00 32 999.5
20260508231902 69 286 1.0 1.0 0.00 0.00 0.00 30 999.5
20260508230902 70 282 2.0 3.0 0.00 0.00 0.00 30 999.6
20260508225902 70 249 2.0 4.0 0.00 0.00 0.00 30 999.5
20260508224902 70 267 2.0 2.0 0.00 0.00 0.00 30 999.7
20260508223902 70 266 2.0 3.0 0.00 0.00 0.00 30 999.7
20260508222902 69 270 1.0 2.0 0.00 0.00 0.00 30 999.9
20260508221902 69 277 2.0 3.0 0.00 0.00 0.00 32 999.9
20260508220902 69 271 1.0 2.0 0.00 0.00 0.00 29 1000.1
20260508215902 70 270 3.0 4.0 0.00 0.00 0.00 29 1000.2
20260508214902 70 312 2.0 4.0 0.00 0.00 0.00 28 1000.3
20260508213932 70 309 2.0 3.0 0.00 0.00 0.00 28 1000.4
20260508212902 70 245 3.0 4.0 0.00 0.00 0.00 29 1000.5
20260508211902 70 290 1.0 2.0 0.00 0.00 0.00 28 1000.5
20260508210902 70 275 1.0 3.0 0.00 0.00 0.00 28 1000.6
20260508205901 70 261 2.0 3.0 0.00 0.00 0.00 29 1000.9
20260508204902 69 260 3.0 4.0 0.00 0.00 0.00 30 1001.0
20260508203902 70 291 2.0 4.0 0.00 0.00 0.00 29 1001.2
20260508202902 69 252 5.0 9.0 0.00 0.00 0.00 28 1001.3
20260508201902 68 251 5.0 8.0 0.00 0.00 0.00 29 1001.5
20260508200902 69 295 2.0 3.0 0.00 0.00 0.00 29 1001.7
20260508194902 69 289 2.0 3.0 0.00 0.00 0.00 29 1002.0
20260508193903 68 306 1.0 2.0 0.00 0.00 0.00 26 1002.1
20260508192901 68 296 2.0 4.0 0.00 0.00 0.00 28 1002.2
20260508191902 68 298 2.0 2.0 0.00 0.00 0.00 27 1002.3
20260508190902 69 255 2.0 3.0 0.00 0.00 0.00 29 1002.4
20260508190002 69 283 3.0 7.0 0.00 0.00 0.00 27 1002.5
20260508184903 69 315 3.0 5.0 0.00 0.00 0.00 26 1002.7